STARLINK-34355, 64306

Orbit data source: Space-Track

STARLINK-34355, 64306 is a payload satellite owned by SpaceX/Seattle (US) in LEO that was launched on Sun, 08 Jun 2025 UTC via an FALCON 9 launch vehicle from the Air Force Western Test Range (AFWTR). Payload-class satellites include a variety of spacecraft equipped with specific instruments for various scientific and technological missions. These include communications satellites like Starlink; space stations such as the ISS; scientific satellites like the Hubble; Earth observation satellites from companies like Planet Labs, Umbra, and HawkEye 360; GPS; miniature CubeSats for education and research; and military/defense satellites.

Loading next visibility...
Identifier
64306, 2025-123R
Orbit
LEO
Country
Flag of USUS
Related business
Manufacturer
SpaceX/Seattle
Mission
Operational Commercial Communications
Bus & Motor
STARLINK V2MO, Unknown motor
Mass
575 kg wet, ~530 kg dry
Launch date (UTC)
2025-06-08 (10 months ago)
Launch vehicle
FALCON 9
Launch site
Air Force Western Test Range (AFWTR)
Object type
Payload
Rocket body
Debris
Shape & HBR
Box + 2 Pan, 17.7 m
Radar Cross Section
36.964 m², Large (>1 m²)

Expand to show TLE details & history
Last TLE update: 17 hours ago

TLE from 17 hours ago
0 STARLINK-34355
1 64306U 25123R   26093.52264513  .00006078  00000-0  51658-3 0  9999
2 64306  70.0001 132.0280 0004026 268.4701  91.5997 14.98342429 45336
Epoch: 2026-04-03T12:32Z
TLE epoch observation values (Epoch: 2026-04-03T12:32:36.539Z)
Latitude
Longitude
112.02019°
Altitude
574.521 km
Speed
7.574 km/s
True Right ascension
08h 48m 06s
True Declination
0° 00' 00"
Sunlit
Object was in full shadow at epoch
Visualization orbit readout
Latitude
Unknown
Longitude
Unknown
Altitude
Unknown
Speed
Unknown
Apparent Right ascension
Unknown
Apparent Declination
Unknown
Sunlit
N/A
Visualization observer readout
Local Sidereal Time
11:21:25
Azimuth
Unknown
Elevation
Unknown
Doppler factor
Unknown
Orbital elements
Apogee altitude
572.763 km
Perigee altitude
567.168 km
Semi-major axis
6,948.103 km
Eccentricity
0.0004
Inclination
70.0001°
RAAN
132.028°
Arg. of periapsis
268.4701°
True anomaly
91.64582°
Mean anomaly
91.5997°
Eccentric anomaly
91.62276°
Mean motion
3.74752 °/min
Orbital period
96.06 mins
BSTAR
0.00051658
Loading maneuver chart data...
Computing Atmospheric mass density...
Loading historical data...
Loading historical data...
Loading historical data...
Loading historical data...
Loading historical data...
Loading historical data...
Loading historical data...

Documentation

Showing up to 5 results
|